This is the latest recevied weather packets stored in our database for station/object AE2A-13. If no packets are shown the sender has not sent any weather packets the latest 10 day(s).
| Time | Temp. | Humidity | Pressure | Rain* | Wind** | Luminosity | Snow |
|---|---|---|---|---|---|---|---|
| 1778094904 | 34.44° C | 45% | 1016.5 hPa | 0 mm | - | - | - |
| 1778092504 | 33.89° C | 47% | 1017 hPa | 0 mm | - | - | - |
| 1778087404 | 32.22° C | 52% | 1017.7 hPa | 0 mm | - | - | - |
| 1778086203 | 32.22° C | 53% | 1018 hPa | 0 mm | - | - | - |
| 1778076304 | 27.22° C | 79% | 1018.5 hPa | 0 mm | - | - | - |
| 1778076004 | 26.67° C | 79% | 1018.6 hPa | 0 mm | - | - | - |
| 1778073304 | 23.33° C | 89% | 1018.4 hPa | 0 mm | - | - | - |
| 1778073003 | 23.33° C | 90% | 1018.3 hPa | 0 mm | - | - | - |
| 1778071803 | 21.67° C | 95% | 1018.2 hPa | 0 mm | - | - | - |
| 1778067904 | 17.22° C | 100% | 1017.7 hPa | 0 mm | - | - | - |
| 1778064904 | 15.56° C | 96% | 1017.4 hPa | 0 mm | - | - | - |
| 1778064604 | 15.56° C | 96% | 1017.3 hPa | 0 mm | - | - | - |
| 1778062204 | 16.11° C | 96% | 1017.2 hPa | 0 mm | - | - | - |
| 1778059203 | 16.11° C | 96% | 1016.8 hPa | 0 mm | - | - | - |
| 1778058304 | 16.11° C | 95% | 1016.6 hPa | 0 mm | - | - | - |
| 1778053804 | 16.11° C | 94% | 1016.7 hPa | 0 mm | - | - | - |
| 1778052004 | 16.67° C | 94% | 1016.7 hPa | 0 mm | - | - | - |
| 1778051103 | 16.67° C | 93% | 1016.7 hPa | 0 mm | - | - | - |
| 1778050504 | 16.67° C | 93% | 1016.8 hPa | 0 mm | - | - | - |
| 1778047804 | 17.22° C | 92% | 1017.3 hPa | 0 mm | - | - | - |
| 1778044803 | 17.78° C | 90% | 1017.7 hPa | 0 mm | - | - | - |
| 1778041803 | 18.89° C | 88% | 1017.7 hPa | 0 mm | - | - | - |
| 1778040004 | 18.89° C | 86% | 1017.7 hPa | 0 mm | - | - | - |
| 1778037903 | 19.44° C | 84% | 1017.6 hPa | 0 mm | - | - | - |
| 1778037004 | 19.44° C | 84% | 1017.6 hPa | 0 mm | - | - | - |
* Rain latest hour (hover to see other rain measurements)
** Current wind speed in m/s (hover to see current wind gust speed)